Location: Poughquag
(41.6090°N, 73.6820°W)
Time: 21:32:47
(UTC-04:00)

SR - Visible Passes

Search period start: 11 September 2024 00:00
Search period end: 21 September 2024 00:00
Orbit: 579 x 855 km, 66.7° (Epoch: 11 September)

Date Brightness Start Highest point End Pass type
(mag) Time Alt. Az. Time Alt. Az. Time Alt. Az.
11 Sep ? 23:07:36 10° NNW 23:08:07 13° NNW 23:08:07 13° NNW visible
12 Sep ? 22:15:24 10° N 22:16:29 14° N 22:16:29 14° N visible
13 Sep ? 21:24:22 10° NNE 21:24:51 10° NNE 21:24:51 10° NNE visible
13 Sep ? 23:03:24 10° NNW 23:04:01 14° NNW 23:04:01 14° NNW visible
14 Sep ? 22:10:53 10° N 22:12:25 18° N 22:12:25 18° N visible
15 Sep ? 21:18:50 10° N 21:20:49 15° NNE 21:20:49 15° NNE visible
15 Sep ? 22:59:20 10° NNW 23:00:00 14° NW 23:00:00 14° NW visible
16 Sep ? 22:06:33 10° NNW 22:08:25 23° N 22:08:25 23° N visible
17 Sep ? 21:14:07 10° N 21:16:53 23° NNE 21:16:53 23° NNE visible
17 Sep ? 22:55:23 10° NW 22:56:03 14° NW 22:56:03 14° NW visible
18 Sep ? 20:22:20 10° NNE 20:24:37 13° NE 20:25:22 13° NE visible
18 Sep ? 22:02:18 10° NNW 22:04:33 29° NNW 22:04:33 29° NNW visible
19 Sep ? 21:09:36 10° NNW 21:13:04 35° NNE 21:13:04 35° NNE visible
19 Sep ? 22:51:40 10° NW 22:52:15 13° WNW 22:52:15 13° WNW visible
20 Sep ? 20:17:18 10° N 20:20:47 20° NE 20:21:38 19° ENE visible
20 Sep ? 21:58:11 10° NW 22:00:49 32° NW 22:00:49 32° NW visible
